Wind_Speed
12 12 12 13 13 13 13 13 13 12 13 12 12 12 13 13 13 13 14 14 14 14 14 15 15 15 16 16 16 17 17 18 18 18 18 18 18 18
13 13 14 15 14 14 14 14 14 14 14 14 14 13 14 15 15 15 15 16 17 16 16 16 16 17 17 17 18 19 20 20 20 20 20 20 19 19
15 15 16 16 16 16 16 16 16 16 16 16 16 16 16 17 17 17 18 18 18 18 18 18 19 18 19 20 19 20 20 21 21 21 21 21 21 21
16 16 17 17 17 17 17 17 17 18 18 18 18 18 17 18 19 19 20 20 20 20 20 20 20 20 21 22 22 22 21 21 21 22 22 21 21 22
18 18 18 18 19 19 19 19 20 20 20 20 20 20 20 20 20 21 21 22 22 21 21 21 21 21 22 23 23 22 21 21 22 23 23 23 22 23
19 19 20 20 20 21 21 21 21 21 21 21 21 21 22 22 22 23 23 23 23 23 23 23 23 23 23 24 24 24 23 23 23 23 24 25 24 24
20 21 21 21 22 22 22 22 22 22 22 22 22 23 23 24 24 24 24 24 24 25 25 25 25 25 25 26 26 26 25 25 25 25 25 26 26 25
21 22 22 22 22 23 23 24 23 23 23 23 24 24 24 25 25 25 26 26 26 26 27 27 27 28 28 28 28 28 27 26 26 26 26 26 26 26
22 23 23 23 23 23 24 24 24 24 25 25 25 25 25 26 27 28 27 27 27 27 28 29 29 30 30 30 30 29 29 28 28 28 27 27 28 28
24 24 24 24 24 25 25 25 25 26 26 26 26 27 28 29 29 29 29 29 29 29 29 29 29 30 31 31 31 32 31 31 30 30 29 28 28 29
25 26 26 26 26 26 26 25 26 27 27 28 28 28 28 29 29 29 29 30 29 29 30 30 30 30 30 31 31 32 32 32 31 31 30 30 29 29
27 28 28 27 27 27 27 27 27 28 28 28 29 29 29 30 30 30 30 30 30 29 29 30 30 31 31 31 32 32 32 32 31 32 32 31 31 31
27 27 27 28 28 28 28 28 29 29 29 29 29 29 30 30 31 31 31 31 31 30 30 31 31 31 32 32 32 32 32 33 32 32 32 32 32 32
28 28 28 29 29 29 29 30 30 30 30 31 31 31 31 31 31 31 32 32 31 31 32 32 32 32 32 32 31 32 32 33 33 33 33 33 33 32
29 29 29 30 29 30 30 30 31 31 31 31 31 31 32 32 32 32 33 33 32 32 32 32 32 33 33 32 32 32 32 32 32 33 33 33 32 32
30 30 30 30 30 30 31 30 30 31 31 32 32 33 33 33 34 34 33 33 32 32 32 32 33 33 33 32 32 31 31 31 32 32 33 32 31 32
31 31 31 31 31 31 31 31 31 32 33 34 34 34 34 34 34 34 33 33 32 32 32 33 33 33 32 32 31 32 32 32 32 32 32 32 32 32
32 31 32 32 32 32 32 32 33 33 34 34 34 33 33 34 33 33 32 32 32 32 32 32 32 31 31 31 31 31 31 32 32 32 31 31 32 32
32 32 32 33 33 33 33 33 33 33 34 34 34 34 34 33 34 34 33 32 32 33 32 31 30 30 30 30 30 30 30 30 31 31 32 32 32 32
33 33 33 33 33 33 33 33 33 33 34 34 33 33 33 33 33 33 33 32 32 32 31 31 30 30 30 30 30 30 30 30 31 31 31 31 32 32
33 32 32 32 32 33 33 33 33 33 33 33 33 33 33 32 32 32 32 32 31 32 32 31 31 31 31 31 30 31 31 31 31 30 30 30 30 31
33 32 32 32 32 33 33 33 33 32 32 32 32 32 32 32 31 31 31 31 31 32 31 31 31 31 31 31 30 30 30 31 31 30 30 30 30 30
32 32 31 31 32 32 32 32 32 32 32 32 32 32 32 32 32 31 32 32 32 32 32 31 31 31 30 31 31 30 30 30 30 30 30 30 30 30
Wind_Direction
287 289 289 290 293 293 295 295 297 297 292 292 292 290 289 289 290 289 288 286 285 286 285 283 283 282 283 281 279 275 275 276 277 276 274 271 269 270
291 290 290 289 289 290 292 294 295 296 295 291 289 289 289 289 289 287 287 287 286 286 285 283 282 282 282 282 282 279 276 276 277 277 273 271 270 269
287 287 287 288 289 290 291 292 293 293 294 293 290 290 287 287 287 286 285 285 285 284 284 284 284 285 284 282 283 283 280 278 277 277 274 272 271 270
285 285 286 287 288 290 290 290 291 291 292 293 292 290 288 286 286 285 286 285 284 283 283 284 284 283 283 282 283 284 283 281 279 278 276 273 271 270
283 283 285 285 287 288 288 288 289 289 289 290 291 290 288 287 286 286 286 286 286 286 284 283 284 283 282 281 282 284 283 281 278 278 278 276 273 269
282 282 283 283 284 285 287 287 288 288 288 289 289 288 288 288 288 288 288 286 286 285 284 283 283 283 283 281 280 281 281 279 278 277 277 276 274 271
281 281 283 282 283 284 286 287 288 289 288 289 289 289 288 288 289 289 288 286 285 284 283 282 282 281 282 281 281 282 281 279 278 277 276 275 274 273
280 280 281 282 282 283 284 285 287 289 288 288 289 290 290 289 289 290 288 286 285 283 282 282 282 282 282 282 282 281 280 279 277 277 276 274 273 272
280 281 281 282 282 283 286 286 286 287 287 289 291 292 291 289 289 289 288 286 284 283 281 280 281 281 282 282 282 281 279 278 277 277 277 274 271 271
279 280 281 282 282 285 287 287 286 286 287 289 290 291 291 290 289 289 288 286 285 283 281 281 281 281 282 281 281 280 279 279 276 275 275 274 273 271
280 280 281 281 283 285 286 286 287 287 288 290 290 290 291 291 290 289 287 286 285 283 282 281 282 282 282 282 281 281 280 278 276 275 274 274 274 272
281 280 280 279 281 282 284 285 285 286 288 289 290 290 290 291 290 289 288 287 286 283 281 281 282 282 281 282 281 280 280 278 275 274 274 273 273 272
280 280 279 279 280 281 282 284 286 286 287 289 290 291 291 291 290 290 289 288 287 285 283 283 282 282 282 282 280 280 279 277 275 274 274 273 272 270
280 280 279 280 280 281 282 283 286 287 287 288 289 290 291 291 291 291 290 289 287 286 284 284 283 282 283 282 281 281 280 278 275 274 274 273 271 269
283 283 282 283 283 283 284 285 287 288 288 288 289 290 291 292 291 290 290 289 287 286 285 284 284 284 284 282 280 279 279 278 277 275 273 271 269 269
283 285 285 285 285 285 285 285 286 287 288 288 288 289 289 290 290 289 288 288 287 285 284 284 284 284 283 283 282 280 279 278 277 275 273 270 268 269
281 282 283 284 284 285 285 284 284 285 287 288 289 289 289 290 289 289 288 287 286 284 284 284 284 283 283 283 283 282 280 279 278 275 274 271 269 268
281 281 282 283 284 284 284 285 285 285 285 287 289 290 289 288 288 289 289 288 286 284 283 283 283 283 281 282 284 284 282 280 279 277 274 274 273 269
280 280 281 282 282 282 283 284 285 286 287 288 289 290 290 287 286 286 287 287 286 286 286 285 284 285 284 283 283 284 283 282 280 278 276 275 273 272
282 281 280 280 280 281 282 283 285 286 287 288 288 287 288 287 286 286 286 287 287 287 287 286 285 286 286 284 284 284 284 283 281 279 275 274 273 272
282 282 280 280 281 281 282 283 284 285 286 287 286 286 286 286 287 287 287 288 288 288 288 287 285 285 286 285 284 283 283 282 281 280 277 276 274 273
281 282 281 281 281 281 282 282 283 284 285 285 284 286 286 286 286 285 285 287 289 290 289 287 285 285 285 285 285 283 282 281 280 280 279 278 276 274
281 282 282 282 282 281 281 281 282 283 284 284 285 286 286 286 285 285 286 288 290 291 290 288 286 285 285 285 285 284 282 280 279 279 279 279 277 275
Height
5853 5853 5852 5851 5850 5849 5848 5847 5846 5845 5844 5842 5841 5839 5838 5837 5836 5835 5834 5834 5833 5832 5831 5831 5830 5829 5828 5828 5827 5827 5827 5827 5826 5826 5826 5825 5826 5825
5850 5850 5849 5848 5847 5846 5845 5844 5842 5841 5840 5839 5838 5836 5835 5833 5832 5831 5830 5829 5828 5827 5827 5826 5825 5824 5823 5823 5822 5822 5821 5821 5821 5820 5820 5820 5820 5820
5846 5846 5845 5844 5843 5842 5841 5840 5838 5837 5836 5835 5833 5832 5831 5829 5828 5826 5825 5824 5823 5822 5821 5820 5819 5818 5817 5817 5816 5815 5815 5814 5814 5814 5813 5814 5814 5815
5842 5841 5840 5839 5839 5838 5836 5835 5834 5833 5831 5830 5829 5827 5826 5824 5823 5821 5820 5819 5817 5816 5815 5814 5813 5812 5811 5810 5810 5809 5808 5808 5808 5807 5807 5807 5808 5808
5837 5836 5836 5835 5834 5832 5831 5830 5829 5827 5826 5824 5823 5822 5820 5818 5817 5816 5814 5813 5811 5810 5809 5808 5807 5806 5805 5804 5803 5802 5802 5802 5801 5801 5800 5800 5800 5801
5831 5831 5830 5829 5828 5827 5825 5824 5823 5822 5820 5819 5817 5816 5814 5812 5811 5810 5808 5806 5805 5803 5802 5801 5800 5799 5798 5797 5796 5796 5795 5795 5794 5794 5794 5793 5793 5793
5826 5825 5824 5823 5822 5821 5819 5818 5817 5816 5814 5813 5811 5810 5808 5806 5805 5803 5801 5800 5798 5797 5796 5794 5793 5792 5791 5790 5789 5789 5788 5788 5787 5787 5786 5786 5786 5786
5820 5819 5818 5816 5815 5814 5813 5812 5811 5810 5808 5807 5805 5803 5802 5800 5798 5796 5794 5793 5791 5790 5788 5787 5786 5785 5783 5782 5782 5781 5780 5780 5780 5779 5779 5778 5778 5778
5813 5812 5811 5810 5809 5807 5806 5805 5804 5802 5802 5800 5798 5796 5794 5793 5791 5789 5787 5785 5783 5782 5780 5779 5778 5777 5775 5774 5773 5773 5772 5772 5772 5771 5770 5770 5770 5770
5806 5805 5804 5803 5802 5801 5799 5798 5797 5795 5794 5793 5791 5789 5787 5784 5782 5780 5778 5777 5775 5774 5772 5771 5770 5768 5767 5766 5765 5764 5764 5763 5763 5762 5762 5761 5761 5761
5799 5798 5797 5796 5795 5793 5792 5791 5789 5788 5786 5784 5783 5780 5778 5776 5774 5772 5770 5768 5767 5766 5764 5763 5761 5760 5759 5757 5756 5755 5754 5754 5753 5753 5753 5753 5752 5752
5791 5790 5789 5788 5787 5785 5784 5783 5782 5780 5778 5776 5774 5772 5770 5768 5765 5763 5761 5760 5758 5757 5755 5754 5752 5751 5750 5749 5747 5746 5745 5744 5744 5744 5743 5743 5743 5743
5783 5782 5780 5779 5778 5777 5776 5775 5773 5772 5770 5768 5766 5764 5762 5759 5757 5754 5752 5751 5749 5748 5746 5745 5743 5742 5740 5739 5738 5736 5735 5735 5734 5734 5733 5733 5733 5733
5774 5773 5772 5770 5769 5768 5767 5766 5765 5763 5761 5760 5758 5755 5753 5751 5748 5746 5744 5741 5740 5738 5736 5735 5733 5732 5730 5729 5728 5727 5725 5724 5724 5723 5723 5723 5723 5723
5766 5764 5763 5762 5760 5759 5758 5757 5755 5754 5752 5750 5748 5747 5744 5742 5739 5737 5735 5732 5730 5728 5726 5725 5723 5722 5720 5718 5717 5716 5715 5714 5713 5713 5712 5712 5712 5713
5757 5756 5754 5753 5752 5750 5749 5748 5746 5745 5743 5741 5739 5737 5735 5733 5730 5727 5725 5723 5721 5719 5717 5715 5713 5711 5710 5708 5707 5706 5705 5704 5704 5703 5702 5702 5702 5702
5748 5747 5745 5744 5743 5741 5739 5738 5737 5735 5733 5731 5729 5727 5725 5722 5720 5717 5715 5713 5712 5710 5708 5705 5703 5701 5700 5698 5697 5696 5694 5694 5693 5692 5692 5692 5692 5692
5739 5737 5736 5734 5733 5731 5730 5728 5727 5725 5723 5721 5719 5717 5715 5713 5710 5708 5705 5703 5701 5699 5697 5695 5693 5691 5690 5689 5687 5685 5684 5683 5682 5681 5681 5681 5682 5681
5728 5727 5726 5724 5723 5721 5720 5718 5716 5714 5713 5711 5709 5707 5705 5702 5700 5698 5695 5693 5691 5689 5687 5684 5683 5681 5680 5679 5677 5676 5674 5673 5671 5671 5671 5671 5671 5671
5718 5717 5715 5714 5712 5711 5709 5708 5706 5704 5702 5700 5698 5696 5694 5692 5690 5688 5685 5684 5682 5679 5677 5675 5673 5672 5670 5669 5668 5666 5664 5663 5661 5661 5660 5659 5659 5659
5708 5706 5705 5704 5702 5701 5699 5698 5696 5694 5692 5690 5688 5686 5684 5682 5680 5678 5676 5674 5672 5670 5668 5666 5664 5662 5660 5659 5657 5656 5654 5652 5651 5650 5650 5649 5649 5649
5698 5696 5695 5694 5692 5691 5689 5687 5686 5684 5682 5680 5678 5676 5674 5672 5670 5668 5667 5665 5662 5660 5658 5656 5654 5652 5650 5648 5647 5646 5644 5642 5641 5640 5639 5638 5637 5638
5687 5686 5685 5683 5682 5680 5679 5677 5676 5674 5672 5670 5668 5666 5664 5662 5660 5659 5657 5655 5653 5650 5648 5646 5643 5641 5639 5638 5637 5635 5634 5632 5631 5630 5629 5627 5627 5626